Regional Weather Roundup
Issued by NWS

Home | Current Version | Previous Version | Text Only | Print | Product List | Glossary Off
Versions: 1 2 3 4 5 6 7 8 9 10 11 12 13 14 15 16 17 18 19 20 21 22 23 24 25 26 27 28 29 30 31 32 33 34 35 36 37 38 39 40 41 42 43 44 45 46 47 48 49 50

000
ASUS43 KOAX 310410
RWRNE

WEATHER ROUNDUP FOR NEBRASKA
NATIONAL WEATHER SERVICE OMAHA NE
1100 PM CDT MON MAY 30 2016

NOTES: SATELLITE DATA IS BEING USED TO AUGMENT CLOUD COVER ABOVE
       12000 FEET.
       "FAIR" INDICATES FEW OR NO CLOUDS BELOW 12,000 FEET WITH NO
       SIGNIFICANT WEATHER AND/OR OBSTRUCTIONS TO VISIBILITY.

  * THESE STATIONS DO NOT REPORT WEATHER SUCH AS RAIN...SNOW OR FOG.

NEZ001>004-019>022-054>056-310500-
NEBRASKA PANHANDLE

CITY           SKY/WX    TMP DP  RH WIND       PRES   REMARKS
SCOTTSBLUFF    LGT RAIN  56  47  71 N17       30.03R
ALLIANCE       MOCLDY    57  46  66 NE16      30.02R
CHADRON        CLOUDY    55  49  80 N3        30.05R
KIMBALL        CLOUDY    55  48  77 W8        30.05R
SIDNEY         MOCLDY    53  49  86 NW13      30.02R
$$

NEZ057>060-069>072-079>082-310500-
SOUTHWEST NEBRASKA

CITY           SKY/WX    TMP DP  RH WIND       PRES   REMARKS
NORTH PLATTE   CLOUDY    60  53  77 SE6       29.92R
IMPERIAL       CLOUDY    59  53  80 S6        29.95R
LEXINGTON      LGT RAIN  60  55  81 SE7       29.97F
MCCOOK         CLOUDY    59  55  87 E7        29.92R
OGALLALA       CLOUDY    56  52  85 NW6       29.95R
$$

NEZ005>010-023>029-035>040-094-310500-
NORTH CENTRAL NEBRASKA

CITY           SKY/WX    TMP DP  RH WIND       PRES   REMARKS
VALENTINE      CLOUDY    60  52  74 N10       29.96R
AINSWORTH      LGT RAIN  59  55  85 NE5       29.96R
BROKEN BOW     HVY RAIN  60  55  83 CALM      29.95R
O`NEILL        TSTM      62  58  88 W17       29.90R
ORD            CLOUDY    68  51  54 NW18      29.89R
THEDFORD       CLOUDY    61  58  91 NW7       29.98R
$$

NEZ041-046>049-061>064-073>077-083>087-310500-
SOUTH CENTRAL NEBRASKA

CITY           SKY/WX    TMP DP  RH WIND       PRES   REMARKS
GRAND ISLAND   CLOUDY    71  55  56 W32G49    29.93R SQUALL
AURORA         CLOUDY    73  59  62 S14       29.88F
HASTINGS       TSTM      61  58  90 NW31G48   29.94R FOG
HEBRON         CLOUDY    71  60  68 S10       29.92S
HOLDREGE       LGT RAIN  63  51  67 NW28G43   29.92F
KEARNEY *      CLOUDY    63  55  77 NW22G29   29.95R
YORK           CLOUDY    73  61  64 S14       29.90R
$$

NEZ011>018-030>034-042>045-310500-
NORTHEAST NEBRASKA

CITY           SKY/WX    TMP DP  RH WIND       PRES   REMARKS
NORFOLK        CLOUDY    74  57  55 S12       29.84F
ALBION         CLOUDY    72  59  63 S10       29.86S
BLAIR          CLOUDY    69  62  78 S18G25    29.91R
FREMONT        CLOUDY    69  59  71 SE13G18   29.89S
TEKAMAH        CLEAR     66  59  78 S13       29.89R
WAYNE          PTCLDY    70  61  74 S15       29.85F
$$

NEZ050>053-065>068-078-088>093-310500-
SOUTHEAST NEBRASKA

CITY           SKY/WX    TMP DP  RH WIND       PRES   REMARKS
LINCOLN        CLOUDY    72  63  73 SE12      29.90R
OMAHA EPPLEY   CLOUDY    69  61  75 S15G21    29.91R
BEATRICE       CLOUDY    71  61  70 S8        29.93R
FALLS CITY     CLEAR     69  63  81 SE7       29.94R
NEBRASKA CITY  PTCLDY    65  65  99 S9        29.94S
PLATTSMOUTH    CLOUDY    67  63  88 SE9       29.93R
$$

NEZ044-045-051>053-067-310500-
OMAHA AREA

CITY           SKY/WX    TMP DP  RH WIND       PRES   REMARKS
OMAHA EPPLEY   CLOUDY    69  61  75 S15G21    29.91R
BLAIR          CLOUDY    69  62  78 S18G25    29.91R
FREMONT        CLOUDY    69  59  71 SE13G18   29.89S
MILLARD        MOCLDY    70  63  78 SE12      29.92R
PLATTSMOUTH    CLOUDY    67  63  88 SE9       29.93R
WAHOO          FAIR      69  61  75 SE10      29.90R
$$




USA.gov is the U.S. government's official web portal to all federal, state and local government web resources and services.